TITAN 3C TRANSTAGE DEB, 26050

Orbit data source: Space-Track

TITAN 3C TRANSTAGE DEB, 26050 is space debris in HEO originally from a launch on Tue, 21 Dec 1965 UTC launched from the Air Force Eastern Test Range (AFETR). Debris objects in space refer to the collection of defunct objects orbiting the Earth. Examples of debris include non-operational satellites, rocket bodies, and fragments generated from explosions, collisions, or faulty payload assembly.

Loading next visibility...
Identifier
26050, 1965-108AJ
Orbit
HEO
Country
Flag of USUS
Related business
Manufacturer
Unknown
Mission
Spacecraft
Bus & Motor
Unknown
Mass
Unknown
Launch date (UTC)
1965-12-21 (60 years ago)
Launch vehicle
Unknown
Launch site
Air Force Eastern Test Range (AFETR)
Object type
Payload
Rocket body
Debris
Shape & HBR
Unknown shape, 0.1 m
Radar Cross Section
Medium (>0.1 m² and <1 m²)

Expand to show TLE details & history
Last TLE update: 1 day ago

TLE from 1 day ago
0 TITAN 3C TRANSTAGE DEB
1 26050U 65108AJ  26072.68922215  .00000262  00000-0  17132-1 0  9990
2 26050  26.3763 266.8592 6626786 205.3968  96.4304  2.69803780263644
Epoch: 2026-03-13T16:32Z
TLE epoch observation values (Epoch: 2026-03-13T16:32:28.793Z)
Latitude
-0.00014°
Longitude
-152.61139°
Altitude
24,055.666 km
Speed
2.812 km/s
True Right ascension
17h 47m 19s
True Declination
0° 00' 01"
Sunlit
Object was in daylight at epoch
Visualization orbit readout
Latitude
Unknown
Longitude
Unknown
Altitude
Unknown
Speed
Unknown
Apparent Right ascension
Unknown
Apparent Declination
Unknown
Sunlit
N/A
Visualization observer readout
Local Sidereal Time
23:40:37
Azimuth
Unknown
Elevation
Unknown
Doppler factor
Unknown
Orbital elements
Apogee altitude
29,866.677 km
Perigee altitude
975.149 km
Semi-major axis
21,799.05 km
Eccentricity
0.66268
Inclination
26.3763°
RAAN
266.8592°
Arg. of periapsis
205.3968°
True anomaly
154.59157°
Mean anomaly
96.4304°
Eccentric anomaly
126.82371°
Mean motion
0.67435 °/min
Orbital period
533.85 mins
BSTAR
0.017132
Loading maneuver chart data...
Computing Atmospheric mass density...

Documentation

Showing up to 5 results
|